Flag for Pakistan Weather past 2 weeks in Peshawar, Pakistan

Now
91 °F

Hot.


Feels Like: 92 °F
Forecast: 71 / 96 °F
Wind: N/A

Location: Peshawar Airport

Current Time: Sep 1, 2014 at 4:28:08 PM

Latest Report: Sep 1, 2014 at 4:00 PM


Visibility: N/A

Pressure: 29.65 "Hg

Humidity: 38%

Dew point: 63 °F

Location of PeshawarLocation

Historic Weather in Peshawar — Graph

°F

Peshawar temperature yesterday

Maximum temperature yesterday: 100 °F (at 4:00 PM)
Minimum temperature yesterday: 79 °F (at 5:00 AM)
Average temperature yesterday: 88 °F

Past Weeks' High & Low Weather Summary

 TemperatureHumidityPressure
High100 °F (Aug 18, 5:00 PM)89% (Aug 22, 6:00 AM)29.80 "Hg (Aug 22, 6:00 AM)
Low72 °F (Aug 21, 9:00 PM)35% (Aug 18, 3:00 PM)29.50 "Hg (Aug 21, 5:00 PM)
Average86 °F59%29.67 "Hg
* Reported Aug 17 3:00 PM — Sep 1 3:00 PM, Peshawar, Weather by CustomWeather, © 2014

Note: Actual official high and low records may vary slightly from our data, if they occured in-between our weather recording intervals... More about our weather records

Advertising

Peshawar weather history for previous 24 hours

 ConditionsComfort  
Time TempWeatherWind HumidityBarometerVisibility
3:00 PM
Sep 1
93 °FExtremely hot.N/A41%29.65 "HgN/A
2:00 PM90 °FHot.N/A43%29.65 "HgN/A
1:00 PM88 °FWarm.N/A46%29.71 "HgN/A
12:00 PM86 °FWarm.N/A52%29.74 "HgN/A
11:00 AM82 °FWarm.N/A62%29.77 "HgN/A
10:00 AM81 °FWarm.N/A66%29.77 "HgN/A
9:00 AM81 °FWarm.N/A70%29.74 "HgN/A
8:00 AM79 °FWarm.N/A74%29.71 "HgN/A
7:00 AM81 °FSleet. Cloudy.N/A79%29.68 "HgN/A
4:59 AM79 °FWarm.N/A74%29.62 "HgN/A
4:00 AM81 °FWarm.N/A70%29.59 "HgN/A
3:00 AM82 °FHaze.No wind66%29.59 "Hg2 mi
2:00 AM82 °FHaze.No wind66%29.59 "Hg2 mi
1:00 AM84 °FHaze.No wind62%29.56 "Hg2 mi
12:00 AM84 °FHaze.No wind62%29.56 "Hg2 mi
11:00 PM
Aug 31
86 °FHaze.No wind59%29.56 "Hg2 mi
10:00 PM88 °FWarm.N/A55%29.56 "HgN/A
9:00 PM88 °FHaze.No wind55%29.53 "Hg2 mi
8:00 PM90 °FSleet. Overcast.N/A55%29.53 "HgN/A
7:00 PM91 °FHot.N/A49%29.50 "HgN/A
6:00 PM97 °FExtremely hot.N/A47%29.50 "HgN/A
5:00 PM100 °FExtremely hot.N/A42%29.50 "HgN/A
4:00 PM100 °FExtremely hot.N/A37%29.53 "HgN/A
Weather by CustomWeather, © 2014

See weather overviewHow to use our weather pages